[Iaude] MPEC L149: 2024 LG5 [a=1.07,e=0.26,i=2.7,H=26.7]
    mpec at cfa.harvard.edu 
    mpec at cfa.harvard.edu
       
    Sat Jun 15 18:54:46 EDT 2024
    
    
  
M.P.E.C. 2024-L149                                Issued 2024 June 15, 22:53 UT
     The Minor Planet Electronic Circulars contain information on unusual
         minor planets, routine data on comets and natural satellites,
         and occasional editorial announcements.  They are published
    on behalf of Division F of the International Astronomical Union by the
          Minor Planet Center, Smithsonian Astrophysical Observatory,
                          Cambridge, MA 02138, U.S.A.
			  
             Prepared using the Tamkin Foundation Computer Network
                              MPC at CFA.HARVARD.EDU
            URL https://www.minorplanetcenter.net/    ISSN 1523-6714
                                    2024 LG5                                    
Observations:
     K24L05G  C2024 06 11.41947116 41 20.978-17 31 14.72         21.16GVEL149F52
     K24L05G  C2024 06 11.42685116 41 17.062-17 31 21.58         20.81GVEL149F52
     K24L05G  C2024 06 11.44151616 41 09.211-17 31 35.59         20.85GVEL149F52
     K24L05G* C2024 06 14.38880116 10 54.755-18 30 49.76         20.50wXEL149F52
     K24L05G  C2024 06 14.39674116 10 47.333-18 31 00.45         20.20wXEL149F52
     K24L05G  C2024 06 14.40466816 10 39.944-18 31 11.13         20.25wXEL149F52
     K24L05G  C2024 06 14.41256316 10 32.563-18 31 21.47         20.35wXEL149F52
     K24L05G  C2024 06 14.46495816 09 43.646-18 32 25.56         19.98GVEL149F51
     K24L05G  C2024 06 14.46559916 09 43.041-18 32 26.31         20.00GVEL149F51
     K24L05G KC2024 06 14.91261516 03 15.96 -18 44 25.6          20.4 GVEL149104
     K24L05G KC2024 06 14.92265116 03 05.77 -18 44 39.9          20.7 GVEL149104
     K24L05G KC2024 06 15.14775615 59 34.08 -18 49 58.7          20.1 GVEL149H21
     K24L05G KC2024 06 15.15060115 59 30.99 -18 50 03.2          20.7 GVEL149H21
     K24L05G KC2024 06 15.15344515 59 27.93 -18 50 07.9          20.0 GVEL149H21
     K24L05G KC2024 06 15.15420415 59 27.09 -18 50 09.0          20.8 GVEL149H21
     K24L05G mC2024 06 15.21602815 58 25.982-18 51 21.38         20.63GVEL149I52
     K24L05G mC2024 06 15.21649915 58 25.511-18 51 21.49               VEL149I52
     K24L05G mC2024 06 15.21744315 58 24.380-18 51 22.39               VEL149I52
     K24L05G 1C2024 06 15.32834115 56 33.451-18 53 21.52         20.02GVEL149T12
     K24L05G 1C2024 06 15.33040115 56 31.093-18 53 24.81         20.05GVEL149T12
     K24L05G 1C2024 06 15.33207115 56 29.200-18 53 27.56         19.73GVEL149T12
     K24L05G  C2024 06 15.38107015 55 32.874-18 54 43.93         19.97GVEL149F52
     K24L05G  C2024 06 15.38189615 55 31.907-18 54 44.94         19.95GVEL149F52
     K24L05G KB2024 06 15.89747215 46 03.28 -19 08 37.1          19.6 GXEL149958
     K24L05G KB2024 06 15.90223515 45 57.10 -19 08 43.6          19.5 GXEL149958
     K24L05G KB2024 06 15.90700715 45 50.98 -19 08 50.6          19.5 GXEL149958
Observer details:
104 San Marcello Pistoiese.  Observers P. Bacci, M. Maestripieri.  Measurers
    P. Bacci, L. Tesi, G. Fagioli.  0.60-m F4 Reflector + CCD.
958 Observatoire de Dax.  Observer P. Dupouy.  0.50-m f/4.5 Reflector + CMO.
F51 Pan-STARRS 1, Haleakala.  Observers J. Herman, T. Lowe, P. Minguez, A.
    Schultz, I. Smith.  Measurers K. Chambers, T. de Boer, J. Fairlamb, H.
    Gao, M. Huber, C.-C. Lin, E. Magnier, Y. Ramanjooloo, R. Wainscoat, R.
    Weryk.  1.8-m Ritchey-Chretien + CCD.
F52 Pan-STARRS 2, Haleakala.  Observers J. Herman, T. Lowe, P. Minguez, A.
    Schultz, I. Smith.  Measurers K. Chambers, T. de Boer, J. Fairlamb, H.
    Gao, M. Huber, C.-C. Lin, E. Magnier, Y. Ramanjooloo, R. Wainscoat, R.
    Weryk.  1.8-m Ritchey-Chretien + CCD.
H21 Astronomical Research Observatory, Westfield.  Observer R. Holmes.
    Measurers T. Linder, R. Holmes, L. Horn.  0.81-m f/4.0 astrograph + CCD.
I52 Steward Observatory, Mt. Lemmon Station.  Observer J. K. Hogan.  Measurers
    T. Beuden, V. F. Carvajal, D. Fay, J. B. Fazekas, D. C. Fuls, A. R. Gibbs,
    A. D. Grauer, H. Groeller, J. K. Hogan, R. A. Kowalski, S. M. Larson, G.
    J. Leonard, D. Rankin, R. L. Seaman, F. C. Shelly, K. W. Wierzchos.  1.0-m
    prime focus + CCD.
T12 University of Hawaii 88-inch telescope, Maunakea.  Observer Y.
    Ramanjooloo.  Measurers R. Weryk, Y. Ramanjooloo, J. Fairlamb, R.
    Wainscoat.  2.24-m f/10.1 reflector + CCD.
Orbital elements:
2024 LG5                                                 Earth MOID = 0.0040 AU
Epoch 2024 Mar. 31.0 TT = JDT 2460400.5                 Veres                   
M 222.52433              (2000.0)            P               Q                  
n   0.88882834     Peri.  278.70299     +0.99711146     -0.06020880             
a   1.0713321      Node    84.75816     +0.07376081     +0.91299643             
e   0.2609824      Incl.    2.66486     -0.01811270     +0.40350021             
P   1.11           H   26.72          G   0.15           U   7                  
Residuals in seconds of arc
240611 F52  0.1-  0.2-    240614 104  0.3-  0.4+    240615 T12  0.1-  0.0
240611 F52  0.2+  0.0     240614 104  0.2+  0.4+    240615 T12  0.0   0.0
240611 F52  0.3-  0.2-    240615 H21  0.3+  0.2+    240615 T12 (0.3+  0.1-)
240614 F52  0.3+  0.0     240615 H21  0.0   0.1+    240615 F52  0.2+  0.0
240614 F52  0.0   0.1+    240615 H21  0.2+  0.2-    240615 F52  0.1+  0.1+
240614 F52  0.0   0.0     240615 H21  0.1-  0.1-    240615 958  1.1+  0.8-
240614 F52  0.2-  0.0     240615 I52  0.4+  1.0-    240615 958  0.2+  0.0
240614 F51  0.3-  0.1+    240615 I52 (1.1+  0.4-)   240615 958  0.4+  0.3+
240614 F51  0.4-  0.1+    240615 I52  0.1-  0.2+
Ephemeris:
2024 LG5                 a,e,i = 1.07, 0.26, 3                   q = 0.7917
Date    TT    R. A. (2000) Decl.     Delta      r    Elong.  Phase     V
2024 05 16    17 32 29.7 -15 44 26   0.1776  1.1697   151.1    24.7    24.5
...
2024 05 31    17 22 55.9 -15 54 40   0.09914 1.1105   166.6    12.2    22.7
...
2024 06 08    17 01 11.6 -16 44 13   0.06198 1.0767   173.8     5.8    21.3
...
2024 06 14    16 16 03.9 -18 19 21   0.03650 1.0504   162.1    17.3    20.6
2024 06 15    16 01 55.0 -18 42 33   0.03257 1.0460   158.0    21.3    20.4
2024 06 16    15 43 58.3 -19 06 35   0.02879 1.0416   153.1    26.2    20.3
...
2024 06 22    11 14 50.5 -12 13 42   0.01585 1.0147    84.0    95.1    21.1
...
2024 06 30    07 26 51.0 +06 59 56   0.04045 0.9788    20.2   159.0    30.3
...
2024 07 15    06 32 42.6 +12 10 04   0.1092  0.9134    18.2   159.7    32.6
M. P. C. Staff               (C) Copyright 2024 MPC           M.P.E.C. 2024-L149
    
    
More information about the Iaude
mailing list